Regional Weather Roundup
Issued by NWS

Home | Current Version | Previous Version | Graphics & Text | Print | Product List | Glossary Off
Versions: 1 2 3 4 5 6 7 8 9 10 11 12 13 14 15 16 17 18 19 20 21 22 23 24 25 26 27 28 29 30 31 32 33 34 35 36 37 38 39 40 41 42 43 44 45 46 47 48 49 50

000
ASUS43 KDTX 291501
RWRMI
MICHIGAN HOURLY REGIONAL WEATHER ROUNDUP
NATIONAL WEATHER SERVICE DETROIT/PONTIAC MI
1100 AM EDT TUE JUL 29 2014

NOTE: "FAIR" INDICATES FEW OR NO CLOUDS BELOW 12,000 FEET WITH NO
SIGNIFICANT WEATHER AND/OR OBSTRUCTION TO VISIBILITY.

MIZ047>049-052>055-059>063-066>070-074>076-081>083-291600-
SOUTHEAST LOWER MICHIGAN

CITY           SKY/WX    TMP DP  RH WIND       PRES   REMARKS
ADRIAN         PTSUNNY   66  49  54 NW8       30.04S
ALMA           CLOUDY    63  55  77 SW7       29.98F
ANN ARBOR      SUNNY     68  49  50 NW10      30.01F
BAD AXE        CLOUDY    59  55  84 W7        29.96F
CARO           CLOUDY    63  57  81 SW8       29.97S
DETROIT CITY   SUNNY     68  48  48 NW5       30.00F
DETROIT        MOSUNNY   67  50  54 W8        30.01F
FLINT          CLOUDY    65  53  65 W13       30.00S
GROSSE ILE     SUNNY     66  50  55 W3        30.00F
HILLSDALE      CLOUDY    63  53  67 W5        30.04S
HOWELL         PTSUNNY   63  52  67 W7        30.01S

CITY           SKY/WX    TMP DP  RH WIND       PRES   REMARKS
JACKSON        CLOUDY    62  53  72 W5        30.03S
LAMBERTVILLE   SUNNY     66  50  55 W7        30.03S
LANSING        CLOUDY    63  52  67 W10       30.01F
LAPEER         PTSUNNY   65  52  61 NW9       29.99S
MASON          CLOUDY    59  53  79 CALM      30.01F
MONROE         SUNNY     64  50  59 SW5       30.01S
MT. CLEMENS    MOSUNNY   68  51  54 NW10      29.99S
PONTIAC        MOSUNNY   66  50  56 W12       30.00S
PORT HOPE        N/A     60  56  86 SW5       29.93F
PORT HURON     SUNNY     66  54  63 W3        29.99S
TRI CITIES     CLOUDY    64  54  69 SW13      29.97F
TROY           PTSUNNY   66  49  54 W10G16    30.01S
SAGINAW HB     CLOUDY    63  52  67 SW9       29.97S
$$
MIZ043>046-050>051-056>058-064>065-071>073-077>080-291600-
SOUTHWEST LOWER MICHIGAN

CITY           SKY/WX    TMP DP  RH WIND       PRES   REMARKS
BATTLE CREEK   CLOUDY    65  53  65 SW10      30.03S
BENTON HARBOR  MOSUNNY   67  57  70 W13       30.03S
BIG RAPIDS     MOSUNNY   63  62  94 W3        29.98S
COLDWATER      PTSUNNY   62  53  72 W7        30.04S
FREMONT        CLOUDY    65  56  72 NW7       29.99F
HOLLAND        MOSUNNY   67  58  72 W5        30.02S
GRAND RAPIDS   PTSUNNY   66  58  75 W9        30.00F
IONIA          PTSUNNY   64  55  74 W12       29.99F
KALAMAZOO      CLOUDY    62  55  77 SW5       30.03F
LUDINGTON      MOSUNNY   64  58  80 NW9       30.00F
MARSHALL       CLOUDY    61  52  71 SW5       30.03S
MOUNT PLEASANT MOSUNNY   65  57  75 SW7       29.96F
MUSKEGON       PTSUNNY   68  56  65 W5        30.00F
SOUTH HAVEN    SUNNY     67  60  79 W7        30.02S
$$
MIZ016>042-291600-
NORTHERN LOWER MICHIGAN

CITY           SKY/WX    TMP DP  RH WIND       PRES   REMARKS
ALPENA         CLOUDY    63  56  78 VRB5      29.92S
BEAVER ISLAND  CLOUDY    59  57  94 NW9       29.96F
BELLAIRE       CLOUDY    63  56  79 NW6       29.96R
CADILLAC       SUNNY     66  57  73 NW9       29.97S
CHARLEVOIX     CLOUDY    60  58  91 NW7       29.99S
FRANKFORT      MOSUNNY   66  56  69 NW8       29.98F
GAYLORD        CLOUDY    60  53  77 NW6       29.96R
GRAYLING       CLOUDY    63  56  77 W9G17     29.96S
HARBOR SPRINGS MOSUNNY   64  57  79 SW8       29.95S
HOUGHTON LAKE  CLOUDY    63  55  75 NW13      29.97S
MANISTEE       MOSUNNY   63  55  77 NW12      30.00S
OSCODA         CLOUDY    61  55  79 W10       29.93R
PELLSTON       PTSUNNY   64  56  75 NW10      29.95S
ROGERS CITY    CLOUDY    63  58  83 NW8       29.93S
TRAVERSE CITY  PTSUNNY   65  56  72 NW9       29.96S
$$
MIZ007>008-015-291600-
EASTERN UPPER MICHIGAN

CITY           SKY/WX    TMP DP  RH WIND       PRES   REMARKS
KINROSS        PTSUNNY   63  55  77 NW9       29.92F
MACKINAC ISLAN MOSUNNY   60  57  87 SW3       29.93S
NEWBERRY       CLOUDY    59  55  86 W15       29.95S
S. S. MARIE    MOSUNNY   59  52  77 NW8       29.92S
$$
MIZ004>006-011>014-085-291600-
CENTRAL UPPER MICHIGAN

CITY           SKY/WX    TMP DP  RH WIND       PRES   REMARKS
MANISTIQUE     CLOUDY    63  56  76 NW9       29.95F
ESCANABA       MOSUNNY   64  54  68 NW6       29.98S
MENOMINEE      MOSUNNY   64  54  68 N7        29.99S
$$
MIZ001>003-009>011-084-291600-
WESTERN UPPER MICHIGAN

CITY           SKY/WX    TMP DP  RH WIND       PRES   REMARKS
IRON MOUNTAIN  PTSUNNY   66  53  63 NW14      30.00S
COPPER HARBOR    N/A     59  54  83 N8        29.98S
IRONWOOD       CLOUDY    64  57  77 W8        30.04S
$$

ABBREVIATIONS USED IN REMARKS
   TC - TEMPERATURE IN CELSIUS
  WCI - WIND CHILL INDEX
   HX - HEAT INDEX
  VSB - VISIBILITY




USA.gov is the U.S. government's official web portal to all federal, state and local government web resources and services.